Date,TemperatureHighF,TemperatureAvgF,TemperatureLowF,DewpointHighF,DewpointAvgF,DewpointLowF,HumidityHigh,HumidityAvg,HumidityLow,PressureMaxIn,PressureMinIn,WindSpeedMaxMPH,WindSpeedAvgMPH,GustSpeedMaxMPH,PrecipitationSumIn
2013-2-1,75,72,67,69,67,61,95,84,77,30.14,30.03,16,9,23,0.19
2013-2-2,74,70,63,65,61,57,83,74,66,30.19,30.08,10,5,17,0.01
2013-2-3,76,70,64,63,60,57,80,71,59,30.19,30.07,11,6,21,0.00
2013-2-4,75,71,65,67,64,61,92,79,68,30.15,30.04,17,8,23,0.02
2013-2-5,74,71,65,67,65,63,94,82,74,30.11,30.01,13,6,20,0.44
2013-2-6,75,69,64,71,66,63,96,92,83,30.09,30.01,10,4,17,0.70
2013-2-7,74,72,66,71,68,65,96,90,83,30.14,30.04,12,5,19,2.98
2013-2-8,77,72,66,70,67,63,91,85,77,30.15,30.04,9,3,15,0.13
2013-2-9,76,70,62,69,66,60,93,86,80,30.16,30.05,10,5,16,0.00
2013-2-10,76,72,66,69,67,63,91,83,76,30.21,30.11,8,5,13,0.00
2013-2-11,72,68,65,67,64,62,91,88,82,30.20,30.17,8,3,12,0.01
2013-2-12,71,68,65,65,63,62,91,86,78,30.15,30.12,10,5,16,0.03
2013-2-13,75,71,65,63,60,54,81,67,52,30.14,30.03,11,7,18,0.03
2013-2-14,75,69,62,64,61,59,90,78,65,30.11,30.01,9,4,14,0.00
2013-2-15,74,66,60,69,62,56,95,88,72,30.13,30.03,9,3,23,1.07
2013-2-16,73,70,64,68,65,61,96,85,77,30.16,30.07,19,10,31,0.70
2013-2-17,72,69,63,67,64,60,91,84,75,30.19,30.09,17,8,28,0.21
2013-2-18,72,70,67,67,65,62,93,84,73,30.17,30.07,21,10,33,0.19
2013-2-19,74,71,67,67,65,62,90,82,76,30.17,30.06,21,8,28,0.12
2013-2-20,74,70,64,68,66,62,96,86,78,30.16,30.07,13,7,20,0.13
2013-2-21,74,68,63,70,66,62,96,93,87,30.17,30.05,13,4,20,1.98
2013-2-22,69,66,63,68,65,62,98,96,94,30.16,30.06,10,2,17,5.72
2013-2-23,67,65,63,66,64,62,98,97,95,30.18,30.09,11,3,21,4.21
2013-2-24,73,72,69,68,66,65,88,83,80,30.13,30.03,15,11,22,0.23
2013-2-25,73,69,64,69,66,62,94,89,81,30.17,30.06,16,6,24,0.51
2013-2-26,76,70,63,67,65,60,94,84,74,30.18,30.10,14,6,21,0.17
2013-2-27,74,71,68,66,64,63,90,79,73,30.22,30.13,14,8,20,0.03
2013-2-28,74,70,62,66,62,57,85,78,69,30.22,30.10,16,7,22,0.01